Location: Crab Orchard
(37.7292°N, 88.8042°W)
Time: 13:31:34
(UTC+00:00)

Cosmos 1980 - Pass Details

Date: 08 December 2019
Orbit: 838 x 849 km, 71.0° (Epoch: 27 January)

Event Time Altitude Azimuth Distance (km) Brightness Sun altitude
Rises 23:33:09 0° 204° (SSW) 3,372 7.6 -11.1°
Reaches altitude 10° 23:35:34 10° 206° (SSW) 2,442 6.8 -11.5°
Maximum altitude 23:41:11 79° 292° (WNW) 858 3.8 -12.6°
Drops below altitude 10° 23:46:50 10° 20° (NNE) 2,461 5.8 -13.6°
Enters shadow 23:48:07 - 21° (NNE) 2,949 6.2 -13.9°
